Location: Dal�� Lhota
(48.7500°N, 14.0167°E)
Time: 09:49:36
(UTC+00:00)

A-11 Canister half - Visible Passes

Search period start: 31 July 2021 00:00
Search period end: 10 August 2021 00:00
Orbit: 1513 x 1687 km, 47.2° (Epoch: 30 July)

Date Brightness Start Highest point End Pass type
(mag) Time Alt. Az. Time Alt. Az. Time Alt. Az.
31 Jul 9.2 19:20:27 10° W 19:30:30 83° S 19:40:45 10° E visible
31 Jul 9.2 21:25:25 10° WNW 21:35:16 59° SSW 21:41:11 27° SE visible
31 Jul 10.0 23:31:11 10° W 23:38:50 25° SW 23:39:19 25° SW visible
01 Aug 9.2 18:57:31 10° W 19:07:32 83° S 19:17:47 10° E visible
01 Aug 9.2 21:02:28 10° WNW 21:12:21 61° SSW 21:18:48 25° SE visible
01 Aug 10.0 23:08:07 10° W 23:15:59 27° SW 23:16:57 26° SW visible
02 Aug 9.2 20:39:32 10° WNW 20:49:25 63° SSW 20:56:31 22° SE visible
02 Aug 9.9 22:45:03 10° W 22:53:09 28° SW 22:54:39 27° SSW visible
03 Aug 9.2 20:16:36 10° WNW 20:26:30 65° SSW 20:34:18 19° SE visible
03 Aug 9.9 22:22:01 10° W 22:30:18 30° SW 22:32:27 28° SSW visible
04 Aug 9.3 19:53:39 10° WNW 20:03:34 66° SSW 20:12:09 16° SE visible
04 Aug 9.9 21:58:59 10° WNW 22:07:26 32° SW 22:10:19 27° SSW visible
05 Aug 9.3 19:30:43 10° W 19:40:38 68° SSW 19:50:03 12° ESE visible
05 Aug 9.9 21:35:58 10° WNW 21:44:35 33° SW 21:48:13 27° S visible
06 Aug 9.3 19:07:47 10° W 19:17:42 70° SSW 19:27:47 10° ESE visible
06 Aug 9.9 21:12:59 10° WNW 21:21:43 35° SW 21:26:10 25° S visible
07 Aug 9.9 20:49:58 10° WNW 20:58:51 37° SW 21:04:11 23° S visible
08 Aug 9.8 20:27:00 10° WNW 20:35:58 39° SW 20:42:16 20° SSE visible
08 Aug 10.8 22:36:28 10° WSW 22:38:43 11° WSW 22:40:26 10° SW visible
09 Aug 9.8 20:04:01 10° WNW 20:13:06 41° SW 20:20:23 17° SSE visible
09 Aug 10.8 22:12:31 10° WSW 22:15:55 12° WSW 22:18:34 11° SW visible
